+ View the NASA Portal
+ Center for Near-Earth Object Studies
IMPORTANT:
The SSD Announcement email list is now available. Major changes are coming in the near future, including possible hostname and/or URL changes. To be notified of such changes, subscribe to this email list.
Please visit
this page
for more details.
Don't show this message again
JPL Small-Body Database Browser
Search:
[
help
]
351810 (2006 KD141)
Classification:
Main-belt Asteroid
SPK-ID:
2351810
[
Ephemeris
|
Orbit Diagram
|
Orbital Elements
|
Mission Design
|
Physical Parameters
|
Discovery Circumstances
]
[ show orbit diagram ]
Orbital Elements at Epoch 2458600.5 (2019-Apr-27.0) TDB
Reference:
JPL 8
(heliocentric ecliptic J2000)
Element
Value
Uncertainty (1-sigma)
Units
e
.1306537979152192
5.5563e-08
a
2.438649215873735
1.814e-08
au
q
2.120030434036861
1.3966e-07
au
i
.4488385068125815
6.7864e-06
deg
node
264.8786476448722
0.0010512
deg
peri
305.2207452055694
0.0010519
deg
M
167.2655655630279
3.841e-05
deg
t
p
2457954.211436447938
(2017-Jul-19.71143645)
0.00014619
TDB
period
1390.984941195632
3.81
1.5521e-05
4.249e-08
d
yr
n
.258809415787463
2.8878e-09
deg/d
Q
2.75726799771061
2.0511e-08
au
Orbit Determination Parameters
# obs. used (total)
139
data-arc span
5474 days (14.99 yr)
first obs. used
2002-04-04
last obs. used
2017-03-30
planetary ephem.
DE431
SB-pert. ephem.
SB431-N16
condition code
0
norm. resid. RMS
.68841
source
ORB
producer
Otto Matic
solution date
2017-Apr-10 07:34:18
Additional Information
Earth MOID
= 1.11483 au
Jupiter MOID
= 2.20759 au
T_jup
= 3.491
[ hide covariance matrix ]
Orbital Elements at Epoch 2456727.5 (2014-Mar-11.0) TDB
Reference:
JPL 8
(heliocentric ecliptic J2000)
Element
Value
Uncertainty (1-sigma)
Units
e
.1303717842598493
5.5425e-08
q
2.121005886729157
1.3926e-07
au
t
p
2456564.077677899763
(2013-Sep-28.57767790)
0.00014352
TDB
node
265.0630129691696
0.0010521
deg
peri
305.2860639833701
0.0010527
deg
i
.4482013194766156
6.7943e-06
deg
Orbit Determination Parameters
# obs. used (total)
139
data-arc span
5474 days (14.99 yr)
first obs. used
2002-04-04
last obs. used
2017-03-30
planetary ephem.
DE431
SB-pert. ephem.
SB431-N16
condition code
0
norm. resid. RMS
.68841
source
ORB
producer
Otto Matic
solution date
2017-Apr-10 07:34:18
Additional Information
Jupiter MOID
= 2.20759 au
T_jup
= 3.491
Orbit Covariance (6×6)
e
q
tp
node
peri
i
e
3.071969344231572E-15
-7.670556558742498E-15
-3.272552709448532E-12
-6.086784766209563E-14
-8.57197521292185E-13
-7.515960382743728E-16
q
-7.670556558742498E-15
1.939224114144378E-14
8.367637035581412E-12
1.679105441483494E-13
2.18151400033997E-12
1.982086633023744E-15
tp
-3.272552709448532E-12
8.367637035581412E-12
2.059825582788754E-8
2.698139365218425E-10
5.492310401343993E-9
2.391620088708964E-12
node
-6.086784766209563E-14
1.679105441483494E-13
2.698139365218425E-10
1.106842421299509E-6
-1.106732003608195E-6
2.947717182408475E-9
peri
-8.57197521292185E-13
2.18151400033997E-12
5.492310401343993E-9
-1.106732003608195E-6
1.108256709496551E-6
-2.946966010774025E-9
i
-7.515960382743728E-16
1.982086633023744E-15
2.391620088708964E-12
2.947717182408475E-9
-2.946966010774025E-9
4.616227007504242E-11
[
Ephemeris
|
Orbit Diagram
|
Orbital Elements
|
Mission Design
|
Physical Parameters
|
Discovery Circumstances
]
Physical Parameter Table
Parameter
Symbol
Value
Units
Sigma
Reference
Notes
absolute magnitude
H
17.7
n/a
MPO254697
351810 (2006 KD141)
Discovered 2006-May-24 by NEAT at Palomar
Reference:
20130127/Numbers.arc
Last Updated:
2013-01-31
[
Ephemeris
|
Orbit Diagram
|
Orbital Elements
|
Mission Design
|
Physical Parameters
|
Discovery Circumstances
]
2019-Dec-10 00:23 UT
(server date/time)
Site Manager:
Ryan S. Park
Webmaster
:
Alan B. Chamberlin